Location: Cluny
(50.9333°N, 112.8167°W)
Time: 13:13:29
(UTC-06:00)

Amateur Radio Satellites - All Passes

Search period start: 30 July 2014 12:43
Search period end: 31 July 2014 12:43
Location: Cluny, 50.9333°N, 112.8167°W

Satellite Date Start Highest point End Downlink Frequencies (MHz)
Time Altitude Azimuth
UKube-1 30 Jul 12:50:18 12:52:40 15° 305° (NW) 12:55:01 145.840 MHz, 145.915 MHz
Uribyol 2 30 Jul 12:54:28 12:57:35 16° 52° (NE) 13:00:41 436.500 FM
AO-27 30 Jul 12:55:06 12:58:12 16° 52° (NE) 13:01:17 436.795 MHz FM
AO-7 30 Jul 12:58:10 13:00:36 12° 19° (NNE) 13:03:02 29.400 - 29.500 MHz
SO-50 30 Jul 12:58:32 13:02:36 34° 120° (ESE) 13:06:44 436.795 FM
Saudisat 1A 30 Jul 12:59:39 13:02:07 14° 6° (N) 13:04:34 436.775 MHz
Oscar 19 30 Jul 13:19:39 13:24:23 40° 65° (ENE) 13:29:10 437.125 CW, 437.150 USB
KITSAT 1 30 Jul 13:23:05 13:30:32 37° 27° (NNE) 13:37:55 435.175 FM
AO-Echo 30 Jul 13:24:02 13:28:19 25° 59° (ENE) 13:32:36 ?
Gurwin Techsat 1B 30 Jul 13:27:06 13:29:42 14° 50° (NE) 13:32:18 435.225 FM
Oscar 16 30 Jul 13:47:54 13:52:59 69° 71° (ENE) 13:58:06 437.025 USB, Beacon 2401.1428
FUNcube-1 30 Jul 14:00:21 14:01:53 12° 305° (NW) 14:03:25 145.950 - 145.970 MHz USB
HO-68 30 Jul 14:02:50 14:05:57 13° 324° (NW) 14:09:03 435.675 MHz FM
ITAMSAT 1 30 Jul 14:12:13 14:17:17 55° 68° (ENE) 14:22:23 435.822 SSB
JAS-1B 30 Jul 14:22:39 14:31:43 59° 63° (ENE) 14:41:22 435.800 - 435.900 CW/SSB
Uribyol 2 30 Jul 14:31:06 14:36:18 80° 72° (ENE) 14:41:31 436.500 FM
AO-27 30 Jul 14:31:43 14:36:56 78° 72° (ENE) 14:42:11 436.795 MHz FM
TMSAT-1 30 Jul 14:38:42 14:43:24 33° 62° (ENE) 14:48:06 436.925 FM
SO-50 30 Jul 14:38:44 14:43:05 46° 321° (NW) 14:47:33 436.795 FM
Saudisat 1A 30 Jul 14:39:22 14:43:08 26° 30° (NNE) 14:46:53 436.775 MHz
AO-7 30 Jul 14:43:57 14:50:39 28° 45° (NE) 14:57:22 29.400 - 29.500 MHz
RS-15 30 Jul 14:45:04 14:56:05 76° 125° (SE) 15:06:58 29.354 - 29.394 USB, Beacon 29.352 USB
UOSAT-12 30 Jul 14:50:12 14:54:23 35° 120° (ESE) 14:58:39 437.025 FM, 437.400 FM
Oscar 19 30 Jul 14:59:09 15:03:48 35° 264° (W) 15:08:30 437.125 CW, 437.150 USB
AO-Echo 30 Jul 15:01:26 15:06:43 63° 258° (WSW) 15:12:00 ?
Gurwin Techsat 1B 30 Jul 15:03:29 15:08:44 65° 70° (ENE) 15:14:01 435.225 FM
KITSAT 1 30 Jul 15:18:48 15:26:57 89° 52° (NE) 15:35:03 435.175 FM
Uosat F 30 Jul 15:23:01 15:26:51 22° 57° (ENE) 15:30:41 435.120 FM
Oscar 16 30 Jul 15:29:08 15:32:52 20° 270° (W) 15:36:37 437.025 USB, Beacon 2401.1428
ITAMSAT 1 30 Jul 15:52:48 15:57:06 26° 267° (W) 16:01:26 435.822 SSB
JAS-2 30 Jul 16:11:43 16:14:57 14° 43° (NE) 16:18:03 435.800 - 435.900 CW/SSB, 435.910 FM
Uribyol 2 30 Jul 16:13:01 16:16:25 17° 272° (W) 16:19:50 436.500 FM
JAS-1B 30 Jul 16:13:30 16:22:21 49° 265° (W) 16:31:56 435.800 - 435.900 CW/SSB
AO-27 30 Jul 16:13:34 16:17:05 18° 271° (W) 16:20:36 436.795 MHz FM
OPAL 30 Jul 16:16:42 16:18:11 11° 87° (E) 16:19:40 ?
TMSAT-1 30 Jul 16:18:08 16:23:12 45° 262° (W) 16:28:19 436.925 FM
Saudisat 1A 30 Jul 16:18:45 16:23:11 78° 231° (SW) 16:27:35 436.775 MHz
SO-50 30 Jul 16:21:33 16:24:45 18° 344° (NNW) 16:27:59 436.795 FM
UOSAT-12 30 Jul 16:29:57 16:34:27 48° 320° (NW) 16:39:03 437.025 FM, 437.400 FM
AO-7 30 Jul 16:34:05 16:42:28 85° 68° (ENE) 16:50:53 29.400 - 29.500 MHz
Gurwin Techsat 1B 30 Jul 16:45:05 16:49:10 22° 270° (W) 16:53:18 435.225 FM
AO-Echo 30 Jul 16:45:35 16:46:32 10° 278° (W) 16:47:28 ?
RS-15 30 Jul 16:58:39 17:09:16 51° 333° (NNW) 17:19:55 29.354 - 29.394 USB, Beacon 29.352 USB
Uosat F 30 Jul 17:00:10 17:05:12 69° 257° (WSW) 17:10:16 435.120 FM
KITSAT 1 30 Jul 17:15:04 17:21:26 27° 254° (WSW) 17:27:47 435.175 FM
JAS-2 30 Jul 17:51:21 17:58:32 46° 64° (ENE) 18:05:08 435.800 - 435.900 CW/SSB, 435.910 FM
OPAL 30 Jul 17:52:54 17:57:59 70° 106° (ESE) 18:03:06 ?
Saudisat 1A 30 Jul 18:00:11 18:02:02 13° 250° (WSW) 18:03:54 436.775 MHz
SO-50 30 Jul 18:04:06 18:07:02 16° 9° (N) 18:09:59 436.795 FM
JAS-1B 30 Jul 18:11:58 18:15:32 12° 289° (WNW) 18:19:11 435.800 - 435.900 CW/SSB
UOSAT-12 30 Jul 18:12:20 18:15:42 19° 343° (NNW) 18:19:05 437.025 FM, 437.400 FM
Hamsat 30 Jul 18:13:50 18:17:56 57° 71° (ENE) 18:22:05 145.90 MHz
AO-7 30 Jul 18:29:28 18:36:14 27° 269° (W) 18:43:03 29.400 - 29.500 MHz
Uosat F 30 Jul 18:43:54 18:44:57 11° 276° (W) 18:46:01 435.120 FM
SO-67 30 Jul 19:01:16 19:04:15 28° 67° (ENE) 19:07:16 435.3500 MHz FM
RS-15 30 Jul 19:14:22 19:24:30 40° 6° (N) 19:34:47 29.354 - 29.394 USB, Beacon 29.352 USB
HO-68 30 Jul 19:14:50 19:19:27 19° 43° (NE) 19:24:04 435.675 MHz FM
OPAL 30 Jul 19:32:34 19:36:26 23° 305° (NW) 19:40:21 ?
JAS-2 30 Jul 19:36:08 19:43:33 49° 262° (W) 19:50:24 435.800 - 435.900 CW/SSB, 435.910 FM
SO-50 30 Jul 19:44:44 19:48:58 32° 33° (NNE) 19:53:16 436.795 FM
Hamsat 30 Jul 19:51:26 19:54:17 18° 270° (W) 19:57:10 145.90 MHz
UOSAT-12 30 Jul 19:54:34 19:57:34 16° 8° (N) 20:00:34 437.025 FM, 437.400 FM
STRAND 1 30 Jul 20:19:08 20:24:13 60° 102° (ESE) 20:29:15 ?
SO-67 30 Jul 20:34:25 20:37:20 25° 266° (W) 20:40:16 435.3500 MHz FM
UKube-1 30 Jul 20:38:10 20:41:30 22° 60° (ENE) 20:44:50 145.840 MHz, 145.915 MHz
HO-68 30 Jul 20:58:52 21:05:55 63° 65° (ENE) 21:12:59 435.675 MHz FM
Oscar 11 30 Jul 21:20:48 21:24:25 27° 63° (ENE) 21:28:03 145.825 FM, Beacon 2401.500 USB
SO-50 30 Jul 21:25:11 21:29:52 63° 233° (SW) 21:34:37 436.795 FM
RS-15 30 Jul 21:28:18 21:39:13 65° 38° (NE) 21:50:26 29.354 - 29.394 USB, Beacon 29.352 USB
JAS-2 30 Jul 21:29:45 21:30:09 10° 282° (WNW) 21:30:32 435.800 - 435.900 CW/SSB, 435.910 FM
UOSAT-12 30 Jul 21:34:53 21:39:08 31° 32° (NNE) 21:43:21 437.025 FM, 437.400 FM
FUNcube-1 30 Jul 21:48:18 21:51:28 21° 61° (ENE) 21:54:37 145.950 - 145.970 MHz USB
MaSat-1 30 Jul 21:50:25 21:54:37 53° 115° (ESE) 21:59:27 437.345 MHz
STRAND 1 30 Jul 21:58:58 22:03:04 25° 301° (WNW) 22:07:08 ?
UKube-1 30 Jul 22:13:06 22:17:23 55° 259° (W) 22:21:43 145.840 MHz, 145.915 MHz
HO-68 30 Jul 22:47:45 22:54:04 33° 266° (W) 23:00:26 435.675 MHz FM
Oscar 11 30 Jul 22:56:25 23:00:29 40° 262° (W) 23:04:34 145.825 FM, Beacon 2401.500 USB
SO-50 30 Jul 23:08:23 23:09:35 11° 252° (WSW) 23:10:47 436.795 FM
UOSAT-12 30 Jul 23:14:57 23:19:40 67° 233° (SW) 23:24:20 437.025 FM, 437.400 FM
FUNcube-1 30 Jul 23:23:25 23:27:36 52° 260° (W) 23:31:44 145.950 - 145.970 MHz USB
MaSat-1 30 Jul 23:28:12 23:32:16 31° 318° (NW) 23:36:46 437.345 MHz
RS-15 30 Jul 23:41:00 23:51:29 53° 244° (WSW) 00:02:19 29.354 - 29.394 USB, Beacon 29.352 USB
PCSat 31 Jul 00:02:01 00:04:51 15° 104° (ESE) 00:07:41 145.825 MHz
ISS 31 Jul 00:02:11 00:04:55 24° 145° (SE) 00:07:41 145.800 FM
AO-40 31 Jul 00:06:41 05:00:13 29° 183° (S) 10:18:35 Beacon 2401.320
Oscar 10/S400 31 Jul 00:08:21 00:34:21 48° 167° (SSE) 08:08:50 145.825 - 145.975 CW/USB, Beacon 145.810 USB
UOSAT-12 31 Jul 00:57:27 00:58:57 11° 252° (WSW) 01:00:26 437.025 FM, 437.400 FM
Sapphire 31 Jul 01:09:13 01:14:17 43° 116° (ESE) 01:19:23 437.095 MHz 1200 baud AX-25 AFSK
MaSat-1 31 Jul 01:09:16 01:11:16 12° 342° (NNW) 01:13:19 437.345 MHz
ISS 31 Jul 01:37:58 01:41:19 78° 164° (SSE) 01:44:41 145.800 FM
PCSat 31 Jul 01:41:58 01:47:22 77° 124° (ESE) 01:52:49 145.825 MHz
Oscar 16 31 Jul 01:55:33 01:58:50 17° 88° (E) 02:02:06 437.025 USB, Beacon 2401.1428
RS-15 31 Jul 01:57:02 02:01:01 13° 268° (W) 02:05:03 29.354 - 29.394 USB, Beacon 29.352 USB
JAS-1B 31 Jul 02:05:51 02:10:15 14° 72° (ENE) 02:14:22 435.800 - 435.900 CW/SSB
ITAMSAT 1 31 Jul 02:21:45 02:24:04 13° 85° (E) 02:26:22 435.822 SSB
Uribyol 2 31 Jul 02:39:36 02:43:18 19° 90° (E) 02:46:58 436.500 FM
AO-27 31 Jul 02:40:33 02:44:14 19° 89° (E) 02:47:53 436.795 MHz FM
Sapphire 31 Jul 02:52:35 02:57:45 44° 317° (NW) 03:02:57 437.095 MHz 1200 baud AX-25 AFSK
AO-Echo 31 Jul 03:04:08 03:08:37 30° 94° (E) 03:12:57 ?
Oscar 19 31 Jul 03:04:51 03:09:58 58° 101° (E) 03:15:04 437.125 CW, 437.150 USB
ISS 31 Jul 03:14:44 03:18:06 78° 4° (N) 03:21:28 145.800 FM
Gurwin Techsat 1B 31 Jul 03:15:32 03:19:05 18° 88° (E) 03:22:36 435.225 FM
PCSat 31 Jul 03:26:37 03:31:21 30° 326° (NW) 03:36:06 145.825 MHz
Oscar 16 31 Jul 03:33:39 03:38:51 82° 287° (WNW) 03:44:02 437.025 USB, Beacon 2401.1428
OPAL 31 Jul 03:34:56 03:39:26 36° 61° (ENE) 03:43:58 ?
JAS-1B 31 Jul 03:53:53 04:03:15 56° 97° (E) 04:11:17 435.800 - 435.900 CW/SSB
ITAMSAT 1 31 Jul 03:59:13 04:04:27 79° 105° (ESE) 04:09:37 435.822 SSB
Uribyol 2 31 Jul 04:18:10 04:23:20 72° 289° (WNW) 04:28:27 436.500 FM
AO-27 31 Jul 04:19:07 04:24:19 73° 289° (WNW) 04:29:28 436.795 MHz FM
MaSat-1 31 Jul 04:26:51 04:30:27 18° 30° (NNE) 04:34:03 437.345 MHz
TMSAT-1 31 Jul 04:28:29 04:33:39 50° 99° (E) 04:38:47 436.925 FM
AO-7 31 Jul 04:31:05 04:36:56 20° 87° (E) 04:42:43 29.400 - 29.500 MHz
Sapphire 31 Jul 04:38:57 04:42:35 18° 342° (NNW) 04:46:14 437.095 MHz 1200 baud AX-25 AFSK
AO-Echo 31 Jul 04:42:44 04:47:34 44° 294° (WNW) 04:52:14 ?
Oscar 19 31 Jul 04:44:46 04:49:00 26° 300° (WNW) 04:53:14 437.125 CW, 437.150 USB
ISS 31 Jul 04:51:29 04:54:46 51° 204° (SSW) 04:58:03 145.800 FM
Gurwin Techsat 1B 31 Jul 04:54:22 04:59:43 80° 287° (WNW) 05:05:01 435.225 FM
Uosat F 31 Jul 05:03:13 05:07:23 26° 93° (E) 05:11:31 435.120 FM
PCSat 31 Jul 05:13:26 05:16:35 15° 351° (N) 05:19:43 145.825 MHz
OPAL 31 Jul 05:13:45 05:18:20 37° 260° (W) 05:22:57 ?
Oscar 16 31 Jul 05:14:19 05:17:28 17° 307° (NW) 05:20:38 437.025 USB, Beacon 2401.1428
ITAMSAT 1 31 Jul 05:39:41 05:43:23 20° 304° (NW) 05:47:05 435.822 SSB
JAS-1B 31 Jul 05:44:34 05:53:36 48° 301° (WNW) 06:01:33 435.800 - 435.900 CW/SSB
KITSAT 1 31 Jul 05:53:33 06:00:16 30° 108° (ESE) 06:07:00 435.175 FM
Uribyol 2 31 Jul 05:59:13 06:01:57 15° 309° (NW) 06:04:41 436.500 FM
AO-27 31 Jul 06:00:10 06:03:00 15° 309° (NW) 06:05:49 436.795 MHz FM
STRAND 1 31 Jul 06:02:20 06:06:30 26° 59° (ENE) 06:10:41 ?
MaSat-1 31 Jul 06:03:38 06:08:54 57° 52° (NE) 06:13:59 437.345 MHz
TMSAT-1 31 Jul 06:08:48 06:13:22 30° 299° (WNW) 06:17:55 436.925 FM
AO-7 31 Jul 06:22:41 06:31:05 79° 109° (ESE) 06:39:24 29.400 - 29.500 MHz
Sapphire 31 Jul 06:25:07 06:28:13 15° 8° (N) 06:31:19 437.095 MHz 1200 baud AX-25 AFSK
ISS 31 Jul 06:29:17 06:30:55 13° 222° (SW) 06:32:32 145.800 FM
Gurwin Techsat 1B 31 Jul 06:35:39 06:38:55 17° 307° (NW) 06:42:10 435.225 FM
Uosat F 31 Jul 06:41:36 06:46:29 52° 292° (WNW) 06:51:20 435.120 FM
JAS-2 31 Jul 06:41:46 06:46:04 20° 86° (E) 06:50:05 435.800 - 435.900 CW/SSB, 435.910 FM
PCSat 31 Jul 06:58:36 07:02:13 18° 18° (NNE) 07:05:49 145.825 MHz
Hamsat 31 Jul 07:30:14 07:34:31 60° 101° (E) 07:38:48 145.90 MHz
JAS-1B 31 Jul 07:35:57 07:41:47 18° 326° (NW) 07:47:18 435.800 - 435.900 CW/SSB
STRAND 1 31 Jul 07:40:18 07:45:23 59° 259° (WSW) 07:50:29 ?
MaSat-1 31 Jul 07:41:26 07:45:58 29° 252° (WSW) 07:50:19 437.345 MHz
KITSAT 1 31 Jul 07:46:48 07:54:56 82° 310° (NW) 08:03:06 435.175 FM
SO-67 31 Jul 07:53:29 07:55:52 17° 91° (E) 07:58:13 435.3500 MHz FM
Sapphire 31 Jul 08:08:47 08:13:29 29° 34° (NNE) 08:18:10 437.095 MHz 1200 baud AX-25 AFSK
Saudisat 1A 31 Jul 08:08:54 08:13:10 49° 124° (SE) 08:17:27 436.775 MHz
AO-7 31 Jul 08:16:04 08:23:13 34° 311° (NW) 08:30:21 29.400 - 29.500 MHz
Uosat F 31 Jul 08:23:01 08:24:12 11° 313° (NW) 08:25:23 435.120 FM
JAS-2 31 Jul 08:25:56 08:32:01 74° 289° (WNW) 08:37:26 435.800 - 435.900 CW/SSB, 435.910 FM
PCSat 31 Jul 08:41:53 08:47:05 42° 42° (NE) 08:52:14 145.825 MHz
Hamsat 31 Jul 09:07:02 09:10:07 20° 299° (WNW) 09:13:13 145.90 MHz
SO-67 31 Jul 09:25:50 09:29:08 40° 289° (WNW) 09:32:25 435.3500 MHz FM
KITSAT 1 31 Jul 09:44:11 09:51:30 36° 336° (NNW) 09:58:51 435.175 FM
Saudisat 1A 31 Jul 09:48:51 09:52:55 35° 325° (NW) 09:57:01 436.775 MHz
Sapphire 31 Jul 09:52:03 09:57:30 80° 236° (SW) 10:02:56 437.095 MHz 1200 baud AX-25 AFSK
UKube-1 31 Jul 09:57:10 10:00:10 18° 91° (E) 10:03:09 145.840 MHz, 145.915 MHz
HO-68 31 Jul 10:08:36 10:15:17 40° 97° (E) 10:21:54 435.675 MHz FM
AO-7 31 Jul 10:10:10 10:13:33 13° 336° (NNW) 10:16:56 29.400 - 29.500 MHz
JAS-2 31 Jul 10:12:19 10:16:00 17° 313° (NW) 10:19:28 435.800 - 435.900 CW/SSB, 435.910 FM
PCSat 31 Jul 10:25:25 10:30:35 45° 243° (WSW) 10:35:42 145.825 MHz
Oscar 11 31 Jul 10:39:01 10:42:41 26° 94° (E) 10:46:20 145.825 FM, Beacon 2401.500 USB
FUNcube-1 31 Jul 11:07:57 11:11:04 20° 92° (E) 11:14:12 145.950 - 145.970 MHz USB
JAS-1B 31 Jul 11:11:50 11:14:39 12° 19° (NNE) 11:17:28 435.800 - 435.900 CW/SSB
Saudisat 1A 31 Jul 11:31:03 11:33:45 16° 348° (NNW) 11:36:27 436.775 MHz
UKube-1 31 Jul 11:32:28 11:36:47 60° 289° (WNW) 11:41:03 145.840 MHz, 145.915 MHz
Sapphire 31 Jul 11:37:02 11:40:05 15° 256° (WSW) 11:43:08 437.095 MHz 1200 baud AX-25 AFSK
KITSAT 1 31 Jul 11:42:40 11:49:26 28° 5° (N) 11:56:11 435.175 FM
SO-50 31 Jul 11:47:47 11:49:31 12° 109° (ESE) 11:51:16 436.795 FM
HO-68 31 Jul 11:56:19 12:03:12 53° 298° (WNW) 12:10:04 435.675 MHz FM
RS-15 31 Jul 12:04:09 12:10:16 17° 96° (E) 12:16:17 29.354 - 29.394 USB, Beacon 29.352 USB
Oscar 11 31 Jul 12:14:57 12:19:01 40° 292° (WNW) 12:23:05 145.825 FM, Beacon 2401.500 USB
Uribyol 2 31 Jul 12:28:01 12:28:42 10° 46° (NE) 12:29:24 436.500 FM
AO-27 31 Jul 12:29:11 12:29:54 10° 46° (NE) 12:30:36 436.795 MHz FM
